Location: Borbetomagus
(49.6328°N, 8.3592°E)
Time: 23:29:54
(UTC+00:00)

Nadezhda 1 Rocket - Pass Details

Date: 19 May 2025
Orbit: 941 x 1003 km, 83.0° (Epoch: 22 June)

Event Time Altitude Azimuth Distance (km) Brightness Sun altitude
Rises 19:48:00 0° 174° (S) 3,597 6.5 -5.7°
Reaches altitude 10° 19:50:30 10° 170° (S) 2,660 5.8 -6.0°
Maximum altitude 19:56:26 59° 93° (E) 1,098 4.1 -6.7°
Drops below altitude 10° 20:02:29 10° 16° (NNE) 2,712 6.7 -7.5°
Sets 20:05:03 0° 13° (NNE) 3,672 7.5 -7.8°
